Prudhoe Bay, AK

5:36 AM AKST on January 18, 2017 (GMT -0900)
Deadhorse

Weather History for PASC - May, 2013

Change the Weather History Date:

Friday, May 31, 2013

  Actual Average Record
Temperature  
Mean Temperature 34 °F -  
Max Temperature 35 °F 33 °F 48 °F (1998)
Min Temperature 32 °F 24 °F 23 °F (2000)
Degree Days  
Heating Degree Days 32    
Moisture  
Dew Point 30 °F    
Average Humidity 90    
Maximum Humidity 100    
Minimum Humidity 75    
Precipitation  
Precipitation 0.00 in - - ()
Sea Level Pressure  
Sea Level Pressure 30.23 in    
Wind  
Wind Speed 6 mph (North)    
Max Wind Speed 15 mph    
Max Gust Speed -    
Visibility 6 miles    
Events Fog , Snow    
Averages and records for this station are not official NWS values.
T = Trace of Precipitation, MM = Missing Value Source: NWS Daily Summary

Daily Weather History Graph

Daily Weather History Graph

Search for Another Location

Airport or City:

Trip Planner

Search our weather history database for the weather conditions in past years. The results will help you decide how hot, cold, wet, or windy it might be!

Date:

Astronomy

Dec. 31, 1969 Rise Set
Actual Time Sun does not rise Sun does not rise
Civil Twilight Sun does not rise Sun does not rise
Nautical Twilight Sun does not rise Sun does not rise
Astronomical Twilight Sun does not rise Sun does not rise
Moon 2:35 AM AKDT (5/31) 1:30 PM AKDT (5/31)
Length of Visible Light 24h 00m
Length of Day
24h 00m
Waning Gibbous, 50% of the Moon is Illuminated
May 31
Waning Gibbous
Jun 8
New
Jun 16
First Quarter
Jun 23
Full
Jun 29
Last Quarter

Hourly Weather History & Observations

Time (AKDT) Temp. Windchill Dew Point Humidity Pressure Visibility Wind Dir Wind Speed Gust Speed Precip Events Conditions
12:09 AM 32.0 °F 26.4 °F 30.2 °F 93% 30.19 in 2.0 mi NE 5.8 mph - N/A   Overcast
12:12 AM 32.0 °F 27.5 °F 30.2 °F 93% 30.19 in 1.0 mi NNE 4.6 mph - N/A   Overcast
12:53 AM 32.0 °F 26.4 °F 30.9 °F 96% 30.20 in 1.0 mi ENE 5.8 mph - 0.00 in Snow Light Snow
1:35 AM 32.0 °F 26.4 °F 30.2 °F 93% 30.20 in 2.0 mi NE 5.8 mph - 0.00 in   Overcast
1:53 AM 32.0 °F 26.4 °F 30.9 °F 96% 30.19 in 1.5 mi NE 5.8 mph - 0.00 in Snow Light Snow
2:12 AM 32.0 °F 26.4 °F 30.2 °F 93% 30.19 in 2.0 mi NE 5.8 mph - 0.00 in   Overcast
2:29 AM 32.0 °F 26.4 °F 30.2 °F 93% 30.20 in 1.2 mi NE 5.8 mph - 0.00 in Snow Light Snow
2:53 AM 32.0 °F 26.4 °F 30.9 °F 96% 30.20 in 1.5 mi NE 5.8 mph - 0.00 in Snow Light Snow
3:05 AM 32.0 °F 27.5 °F 30.2 °F 93% 30.19 in 0.8 mi NE 4.6 mph - 0.00 in Snow Light Snow
3:17 AM 32.0 °F 27.5 °F 30.2 °F 93% 30.19 in 1.5 mi NE 4.6 mph - 0.00 in Snow Light Snow
3:53 AM 32.0 °F 26.4 °F 30.9 °F 96% 30.20 in 2.0 mi ENE 5.8 mph - 0.00 in   Overcast
4:20 AM 32.0 °F 27.5 °F 30.2 °F 93% 30.19 in 1.5 mi ENE 4.6 mph - N/A   Overcast
4:42 AM 32.0 °F 26.4 °F 30.2 °F 93% 30.20 in 0.8 mi NE 5.8 mph - N/A   Overcast
4:53 AM 32.0 °F 27.5 °F 30.9 °F 96% 30.20 in 0.5 mi NE 4.6 mph - 0.00 in Fog , Snow Light Snow
5:26 AM 32.0 °F 26.4 °F 30.2 °F 93% 30.19 in 0.8 mi ENE 5.8 mph - 0.00 in   Overcast
5:53 AM 32.0 °F 27.5 °F 30.9 °F 96% 30.20 in 0.5 mi ENE 4.6 mph - 0.00 in Fog Fog
6:16 AM 32.0 °F 28.7 °F 30.2 °F 93% 30.20 in 0.8 mi ENE 3.5 mph - N/A   Overcast
6:25 AM 32.0 °F 28.7 °F 30.2 °F 93% 30.20 in 0.8 mi East 3.5 mph - N/A   Overcast
6:53 AM 32.0 °F - 32.0 °F 100% 30.20 in 1.5 mi Calm Calm - 0.00 in Snow Light Snow
7:53 AM 32.0 °F - 32.0 °F 100% 30.21 in 1.5 mi Calm Calm - 0.00 in   Overcast
8:53 AM 32.0 °F - 32.0 °F 100% 30.22 in 1.0 mi Calm Calm - N/A   Overcast
9:42 AM 32.0 °F - 30.2 °F 93% 30.23 in 10.0 mi Calm Calm - N/A   Overcast
9:53 AM 32.0 °F 28.7 °F 30.9 °F 96% 30.23 in 10.0 mi West 3.5 mph - N/A   Overcast
10:27 AM 33.8 °F - 30.2 °F 87% 30.23 in 10.0 mi Calm Calm - N/A   Overcast
10:53 AM 34.0 °F 28.0 °F 30.9 °F 89% 30.24 in 10.0 mi NW 6.9 mph - 0.00 in   Overcast
11:50 AM 33.8 °F 27.7 °F 30.2 °F 87% 30.24 in 10.0 mi WNW 6.9 mph - N/A   Scattered Clouds
11:53 AM 34.0 °F 28.0 °F 30.9 °F 89% 30.25 in 10.0 mi NW 6.9 mph - N/A   Mostly Cloudy
12:53 PM 34.0 °F 26.0 °F 30.0 °F 85% 30.27 in 10.0 mi NW 10.4 mph - 0.00 in   Mostly Cloudy
1:53 PM 34.0 °F 28.0 °F 28.9 °F 82% 30.27 in 10.0 mi WNW 6.9 mph - 0.00 in   Overcast
2:01 PM 35.6 °F 29.9 °F 28.4 °F 75% 30.27 in 10.0 mi West 6.9 mph - N/A   Overcast
2:31 PM 35.6 °F 29.2 °F 28.4 °F 75% 30.27 in 10.0 mi West 8.1 mph - 0.00 in   Overcast
2:53 PM 35.1 °F 27.4 °F 28.0 °F 76% 30.27 in 10.0 mi West 10.4 mph - 0.00 in   Overcast
3:53 PM 35.1 °F 27.4 °F 28.9 °F 78% 30.28 in 10.0 mi West 10.4 mph - 0.00 in   Overcast
4:53 PM 34.0 °F 26.0 °F 28.0 °F 79% 30.28 in 10.0 mi WSW 10.4 mph - 0.00 in   Overcast
5:53 PM 34.0 °F 24.2 °F 28.0 °F 79% 30.28 in 10.0 mi West 15.0 mph - 0.00 in   Overcast
6:53 PM 34.0 °F 25.5 °F 28.9 °F 82% 30.28 in 10.0 mi WSW 11.5 mph - N/A   Overcast
7:53 PM 34.0 °F 25.5 °F 30.0 °F 85% 30.28 in 10.0 mi WSW 11.5 mph - 0.00 in   Overcast
8:53 PM 34.0 °F 25.0 °F 30.0 °F 85% 30.28 in 10.0 mi West 12.7 mph - N/A   Overcast
9:53 PM 34.0 °F 25.0 °F 30.0 °F 85% 30.28 in 10.0 mi WSW 12.7 mph - N/A   Mostly Cloudy
10:53 PM 34.0 °F 26.0 °F 30.0 °F 85% 30.27 in 10.0 mi WSW 10.4 mph - N/A   Scattered Clouds
11:53 PM 33.1 °F 23.9 °F 30.0 °F 89% 30.26 in 10.0 mi SW 12.7 mph - N/A   Scattered Clouds